Location: Montreal
(45.5087°N, 73.5540°W)
Time: 12:02:26
(UTC-04:00)

OTV 5 (USA 277) - Visible Passes

Search period start: 25 April 2018 00:00
Search period end: 05 May 2018 00:00
Orbit: 308 x 325 km, 54.5° (Epoch: 23 April)

Date Brightness Start Highest point End Pass type
(mag) Time Alt. Az. Time Alt. Az. Time Alt. Az.
25 Apr ? 21:56:32 10° NNW 21:57:58 13° N 21:59:17 10° NE visible
26 Apr ? 20:36:09 10° NW 20:37:37 13° N 20:39:04 10° NNE visible
26 Apr ? 22:10:56 10° NNW 22:12:46 16° NNE 22:13:08 16° NNE visible
27 Apr ? 20:51:07 10° NNW 20:52:26 13° N 20:53:46 10° NNE visible
27 Apr ? 22:25:13 10° NW 22:26:58 22° N 22:26:58 22° N visible
28 Apr ? 21:05:39 10° NNW 21:07:15 14° N 21:08:52 10° NE visible
28 Apr ? 22:39:30 10° NW 22:40:48 23° NNW 22:40:48 23° NNW visible
29 Apr ? 21:19:58 10° NNW 21:22:02 19° NNE 21:23:46 12° ENE visible
29 Apr ? 22:53:55 10° WNW 22:54:38 16° WNW 22:54:38 16° WNW visible
30 Apr ? 21:34:15 10° NW 21:36:43 30° NNE 21:37:37 24° ENE visible
01 May ? 21:48:36 10° NW 21:51:18 65° NE 21:51:30 61° ENE visible
02 May ? 22:03:07 10° WNW 22:05:25 43° WSW 22:05:25 43° WSW visible
03 May ? 20:43:18 10° NW 20:45:55 42° NNE 20:48:29 10° ESE visible
03 May ? 22:18:04 10° W 22:19:22 17° WSW 22:19:22 17° WSW visible
04 May ? 20:57:42 10° WNW 21:00:26 79° SW 21:02:29 16° SE visible
